Date String (YYYY-MM-DD hh:mm:ss) UTC,Instrument flags,Ambient pressure (hPa),Sample flow (lpm),Bypass flow (lpm),Sample temperature (°C),Ambient temperature (°C),ASC tube jacket temperature (°C),LED temperature (°C),Box temperature (°C),Sample RH (%),Span deviation,Mass concentration (μg/m³),Mass concentration (μg/m³),Mass concentration (μg/m³)
DateTimeUTC,F1_M11,P_M11,Q1_M11,Q2_M11,T1_M11,T2_M11,T3_M11,T4_M11,T5_M11,U1_M11,ZSPAN_M11,X0_M11,X2_M11,X1_M11
2021-11-08 08:00:00,,0826.8,5.00,0.00,29.0,28.1,00.0,38.1,30.6,12.1,0000.0,0010.33,0002.87,0001.67
2021-11-08 08:01:00,,0826.9,4.99,0.00,28.9,28.0,00.0,38.0,30.6,12.2,0000.0,0009.97,0002.86,0001.68
2021-11-08 08:02:00,,0827.0,5.01,0.00,28.9,28.0,00.0,38.0,30.5,12.4,0000.0,0009.87,0002.89,0001.69
2021-11-08 08:03:00,,0826.8,4.99,0.00,28.9,28.0,00.0,38.0,30.5,12.5,0000.0,0009.78,0002.90,0001.71
2021-11-08 08:04:00,,0826.9,5.01,0.00,28.8,27.9,00.0,38.0,30.5,12.5,0000.0,0009.54,0002.92,0001.71
2021-11-08 08:05:00,,0826.9,4.99,0.00,28.8,27.9,00.0,38.0,30.4,12.6,0000.0,0009.28,0002.93,0001.71
2021-11-08 08:06:00,,0827.0,4.99,0.00,28.8,27.8,00.0,38.0,30.4,12.6,0000.0,0009.03,0002.94,0001.71
2021-11-08 08:07:00,,0827.0,5.00,0.00,28.7,27.8,00.0,37.9,30.4,12.6,0000.0,0009.69,0002.93,0001.72
2021-11-08 08:08:00,,0827.0,5.00,0.00,28.7,27.8,00.0,37.9,30.3,12.7,0000.0,0009.71,0002.89,0001.72
2021-11-08 08:09:00,,0827.0,5.00,0.00,28.7,27.8,00.0,37.9,30.4,12.7,0000.0,0009.51,0002.87,0001.72
2021-11-08 08:10:00,,0827.1,5.01,0.00,28.7,27.8,00.0,37.9,30.4,12.8,0000.0,0008.77,0002.86,0001.71
2021-11-08 08:11:00,,0827.0,5.01,0.00,28.7,27.8,00.0,37.9,30.4,12.8,0000.0,0008.41,0002.84,0001.72
2021-11-08 08:12:00,,0827.0,4.99,0.00,28.7,27.8,00.0,37.9,30.4,12.8,0000.0,0008.80,0002.84,0001.73
2021-11-08 08:13:00,,0827.1,4.99,0.00,28.7,27.8,00.0,37.9,30.4,12.9,0000.0,0009.13,0002.83,0001.74
2021-11-08 08:14:00,,0827.0,4.99,0.00,28.7,27.8,00.0,37.8,30.4,12.9,0000.0,0008.75,0002.80,0001.73
2021-11-08 08:15:00,,0827.0,5.00,0.00,28.7,27.8,00.0,37.8,30.4,13.0,0000.0,0008.49,0002.78,0001.73
2021-11-08 08:16:00,,0827.1,5.00,0.00,28.7,27.8,00.0,37.8,30.4,13.0,0000.0,0008.41,0002.77,0001.73
2021-11-08 08:17:00,,0827.0,5.01,0.00,28.7,27.8,00.0,37.8,30.3,13.0,0000.0,0008.29,0002.73,0001.73
2021-11-08 08:18:00,,0827.2,5.00,0.00,28.6,27.8,00.0,37.8,30.3,13.1,0000.0,0008.35,0002.77,0001.73
2021-11-08 08:19:00,,0827.1,5.00,0.00,28.6,27.7,00.0,37.8,30.3,13.1,0000.0,0009.01,0002.76,0001.74
2021-11-08 08:20:00,,0827.2,5.00,0.00,28.6,27.7,00.0,37.8,30.3,13.1,0000.0,0009.54,0002.72,0001.74
2021-11-08 08:21:00,,0827.2,4.99,0.00,28.6,27.7,00.0,37.8,30.3,13.2,0000.0,0009.47,0002.74,0001.74
2021-11-08 08:22:00,,0827.2,4.99,0.00,28.6,27.7,00.0,37.7,30.3,13.3,0000.0,0009.88,0002.76,0001.74
2021-11-08 08:23:00,,0827.2,5.00,0.00,28.6,27.7,00.0,37.7,30.3,13.3,0000.0,0009.91,0002.71,0001.73
2021-11-08 08:24:00,,0827.2,5.00,0.00,28.6,27.7,00.0,37.7,30.3,13.3,0000.0,0009.44,0002.73,0001.72
2021-11-08 08:25:00,,0827.3,5.00,0.00,28.6,27.7,00.0,37.7,30.3,13.3,0000.0,0010.84,0002.77,0001.71
2021-11-08 08:26:00,,0827.2,4.99,0.00,28.6,27.7,00.0,37.7,30.3,13.3,0000.0,0011.37,0002.78,0001.71
2021-11-08 08:27:00,,0827.3,5.00,0.00,28.6,27.6,00.0,37.7,30.3,13.3,0000.0,0011.65,0002.77,0001.72
2021-11-08 08:28:00,,0827.3,5.01,0.00,28.6,27.6,00.0,37.7,30.3,13.3,0000.0,0012.30,0002.80,0001.72
2021-11-08 08:29:00,,0827.4,4.99,0.00,28.5,27.6,00.0,37.7,30.3,13.3,0000.0,0011.98,0002.80,0001.71
2021-11-08 08:30:00,,0827.4,5.00,0.00,28.5,27.7,00.0,37.7,30.3,13.3,0000.0,0011.14,0002.77,0001.71
2021-11-08 08:31:00,,0827.4,5.00,0.00,28.6,27.7,00.0,37.7,30.3,13.3,0000.0,0010.64,0002.73,0001.70
2021-11-08 08:32:00,,0827.5,5.00,0.00,28.6,27.7,00.0,37.7,30.3,13.3,0000.0,0010.65,0002.67,0001.68
2021-11-08 08:33:00,,0827.5,4.99,0.00,28.6,27.7,00.0,37.7,30.3,13.3,0000.0,0010.10,0002.65,0001.68
2021-11-08 08:34:00,,0827.5,5.01,0.00,28.6,27.7,00.0,37.6,30.3,13.4,0000.0,0009.87,0002.75,0001.69
2021-11-08 08:35:00,,0827.5,5.01,0.00,28.6,27.7,00.0,37.6,30.3,13.4,0000.0,0009.52,0002.72,0001.69
2021-11-08 08:36:00,,0827.6,5.00,0.00,28.6,27.7,00.0,37.6,30.4,13.4,0000.0,0008.17,0002.70,0001.70
2021-11-08 08:37:00,,0827.5,4.99,0.00,28.6,27.7,00.0,37.6,30.4,13.4,0000.0,0007.79,0002.72,0001.71
2021-11-08 08:38:00,,0827.5,5.00,0.00,28.6,27.7,00.0,37.6,30.3,13.4,0000.0,0007.72,0002.81,0001.71
2021-11-08 08:39:00,,0827.5,4.99,0.00,28.6,27.7,00.0,37.6,30.4,13.4,0000.0,0006.96,0002.85,0001.72
2021-11-08 08:40:00,,0827.5,4.99,0.00,28.6,27.7,00.0,37.6,30.4,13.4,0000.0,0006.52,0002.89,0001.73
2021-11-08 08:41:00,,0827.5,5.02,0.00,28.6,27.7,00.0,37.6,30.4,13.4,0000.0,0006.77,0002.86,0001.73
2021-11-08 08:42:00,,0827.6,5.00,0.00,28.6,27.7,00.0,37.6,30.4,13.4,0000.0,0006.47,0002.85,0001.73
2021-11-08 08:43:00,,0827.5,5.00,0.00,28.6,27.7,00.0,37.6,30.4,13.4,0000.0,0006.26,0002.87,0001.75
2021-11-08 08:44:00,,0827.5,5.00,0.00,28.6,27.7,00.0,37.6,30.4,13.4,0000.0,0006.52,0002.93,0001.74
2021-11-08 08:45:00,,0827.5,5.00,0.00,28.6,27.7,00.0,37.6,30.3,13.4,0000.0,0006.46,0002.91,0001.74
2021-11-08 08:46:00,,0827.5,5.00,0.00,28.6,27.7,00.0,37.6,30.3,13.4,0000.0,0006.52,0002.91,0001.73
2021-11-08 08:47:00,,0827.6,4.99,0.00,28.6,27.7,00.0,37.6,30.4,13.4,0000.0,0006.60,0002.89,0001.74
2021-11-08 08:48:00,,0827.7,4.99,0.00,28.6,27.7,00.0,37.6,30.4,13.5,0000.0,0006.97,0002.90,0001.73
2021-11-08 08:49:00,,0827.8,5.00,0.00,28.6,27.7,00.0,37.6,30.3,13.5,0000.0,0006.82,0002.88,0001.73
2021-11-08 08:50:00,,0827.7,5.00,0.00,28.6,27.7,00.0,37.6,30.3,13.5,0000.0,0007.20,0002.89,0001.74
2021-11-08 08:51:00,,0827.7,4.98,0.00,28.6,27.7,00.0,37.6,30.4,13.4,0000.0,0007.52,0002.94,0001.75
2021-11-08 08:52:00,,0827.7,5.00,0.00,28.6,27.7,00.0,37.6,30.4,13.5,0000.0,0007.28,0002.97,0001.76
2021-11-08 08:53:00,,0827.7,5.01,0.00,28.6,27.7,00.0,37.6,30.4,13.5,0000.0,0007.93,0002.99,0001.77
2021-11-08 08:54:00,,0827.8,4.99,0.00,28.6,27.7,00.0,37.6,30.4,13.5,0000.0,0008.06,0003.02,0001.79
2021-11-08 08:55:00,,0827.9,5.02,0.00,28.6,27.7,00.0,37.6,30.4,13.5,0000.0,0007.96,0003.00,0001.82
2021-11-08 08:56:00,,0827.9,5.00,0.00,28.6,27.7,00.0,37.6,30.3,13.5,0000.0,0008.27,0003.02,0001.85
2021-11-08 08:57:00,,0827.9,4.99,0.00,28.6,27.7,00.0,37.6,30.3,13.5,0000.0,0008.79,0003.12,0001.88
2021-11-08 08:58:00,,0827.8,5.00,0.00,28.6,27.7,00.0,37.6,30.3,13.5,0000.0,0008.83,0003.16,0001.90
2021-11-08 08:59:00,,0827.9,5.00,0.00,28.6,27.7,00.0,37.6,30.3,13.5,0000.0,0008.62,0003.18,0001.92
